TimePST,TemperatureF,Dew PointF,Humidity,Sea Level PressureIn,VisibilityMPH,Wind Direction,Wind SpeedMPH,Gust SpeedMPH,PrecipitationIn,Events,Conditions,WindDirDegrees,DateUTC
12:53 AM,-9999,-9999,N/A,30.24,7.0,ENE,9.2,-,0.00,,Overcast,70,2014-01-02 08:53:00
1:53 AM,-9999,-9999,N/A,30.23,6.0,ENE,8.1,-,0.00,,Haze,70,2014-01-02 09:53:00
2:53 AM,-9999,-9999,N/A,30.23,6.0,ENE,6.9,-,N/A,,Haze,60,2014-01-02 10:53:00
3:53 AM,-9999,-9999,N/A,30.22,4.0,ENE,6.9,-,N/A,,Haze,60,2014-01-02 11:53:00
4:53 AM,-9999,-9999,N/A,30.20,6.0,ENE,4.6,-,N/A,,Haze,60,2014-01-02 12:53:00
5:53 AM,-9999,-9999,N/A,30.20,6.0,ENE,6.9,-,N/A,,Haze,70,2014-01-02 13:53:00
6:53 AM,-9999,-9999,N/A,30.17,4.0,ENE,9.2,-,N/A,,Haze,70,2014-01-02 14:53:00
7:53 AM,-9999,-9999,N/A,30.15,5.0,ENE,4.6,-,N/A,,Haze,60,2014-01-02 15:53:00
8:53 AM,-9999,-9999,N/A,30.16,4.0,East,5.8,-,N/A,,Haze,90,2014-01-02 16:53:00
9:53 AM,-9999,-9999,N/A,30.15,6.0,NE,6.9,-,N/A,,Haze,50,2014-01-02 17:53:00
10:53 AM,-9999,-9999,N/A,30.14,5.0,ENE,6.9,-,N/A,,Haze,70,2014-01-02 18:53:00
11:53 AM,-9999,-9999,N/A,30.11,6.0,NE,5.8,-,N/A,,Haze,50,2014-01-02 19:53:00
12:53 PM,-9999,-9999,N/A,30.09,7.0,Calm,Calm,-,N/A,,Overcast,0,2014-01-02 20:53:00
1:12 PM,-9999,-9999,N/A,30.06,7.0,Calm,Calm,-,N/A,,Overcast,0,2014-01-02 21:12:00
1:53 PM,-9999,-9999,N/A,30.06,7.0,South,9.2,-,N/A,,Overcast,180,2014-01-02 21:53:00
2:31 PM,-9999,-9999,N/A,30.02,7.0,South,9.2,-,N/A,,Overcast,170,2014-01-02 22:31:00
2:51 PM,-9999,-9999,N/A,30.01,7.0,South,11.5,-,N/A,,Overcast,170,2014-01-02 22:51:00
2:53 PM,-9999,-9999,N/A,30.03,7.0,South,12.7,-,N/A,,Overcast,180,2014-01-02 22:53:00
3:38 PM,-9999,-9999,N/A,29.99,2.5,South,17.3,-,0.01,,Unknown,170,2014-01-02 23:38:00
3:43 PM,-9999,-9999,N/A,29.99,1.8,South,18.4,-,0.01,,Unknown,170,2014-01-02 23:43:00
3:53 PM,-9999,-9999,N/A,30.01,1.0,South,18.4,23.0,0.01,,Unknown,170,2014-01-02 23:53:00
4:15 PM,-9999,-9999,N/A,29.98,2.5,South,17.3,-,0.01,Rain,Light Rain,170,2014-01-03 00:15:00
4:33 PM,-9999,-9999,N/A,29.98,2.5,South,17.3,-,0.02,Rain,Light Rain,180,2014-01-03 00:33:00
4:44 PM,-9999,-9999,N/A,29.98,1.8,South,15.0,-,0.02,Rain,Rain,190,2014-01-03 00:44:00
4:53 PM,-9999,-9999,N/A,30.00,1.5,South,17.3,23.0,0.03,Rain,Rain,180,2014-01-03 00:53:00
5:41 PM,-9999,-9999,N/A,29.97,2.0,South,23.0,29.9,0.06,Rain,Light Rain,170,2014-01-03 01:41:00
5:53 PM,-9999,-9999,N/A,29.99,2.0,South,17.3,-,0.08,,Unknown,180,2014-01-03 01:53:00
6:36 PM,-9999,-9999,N/A,29.96,1.8,SW,12.7,-,0.09,Rain,Rain,220,2014-01-03 02:36:00
6:47 PM,-9999,-9999,N/A,29.96,2.0,SW,19.6,26.5,0.12,Rain,Rain,220,2014-01-03 02:47:00
6:53 PM,-9999,-9999,N/A,29.98,2.5,SSW,21.9,26.5,0.46,Rain,Rain,200,2014-01-03 02:53:00
7:25 PM,-9999,-9999,N/A,29.97,3.0,West,17.3,-,0.05,Rain,Light Rain,270,2014-01-03 03:25:00
7:40 PM,-9999,-9999,N/A,29.97,4.0,WNW,12.7,21.9,0.09,Rain,Light Rain,290,2014-01-03 03:40:00
7:53 PM,-9999,-9999,N/A,30.00,5.0,West,10.4,-,0.10,Rain,Light Rain,280,2014-01-03 03:53:00
8:46 PM,-9999,-9999,N/A,30.00,4.0,WSW,10.4,-,0.05,Rain,Light Rain,250,2014-01-03 04:46:00
8:53 PM,-9999,-9999,N/A,30.02,4.0,West,10.4,-,0.06,Rain,Light Rain,260,2014-01-03 04:53:00
8:57 PM,-9999,-9999,N/A,30.00,4.0,West,11.5,-,0.01,Rain,Light Rain,260,2014-01-03 04:57:00
9:12 PM,-9999,-9999,N/A,30.01,4.0,WSW,9.2,-,0.02,Rain,Light Rain,250,2014-01-03 05:12:00
9:24 PM,-9999,-9999,N/A,30.01,6.0,WSW,10.4,-,0.03,Rain,Light Rain,240,2014-01-03 05:24:00
9:53 PM,-9999,-9999,N/A,30.05,9.0,West,11.5,-,0.04,,Overcast,280,2014-01-03 05:53:00
10:53 PM,-9999,-9999,N/A,30.08,8.0,West,11.5,19.6,N/A,,Mostly Cloudy,280,2014-01-03 06:53:00
11:40 PM,-9999,-9999,N/A,30.08,7.0,West,12.7,-,N/A,,Scattered Clouds,270,2014-01-03 07:40:00
11:53 PM,-9999,-9999,N/A,30.11,7.0,West,10.4,-,N/A,,Scattered Clouds,280,2014-01-03 07:53:00